Terminal Aerodrome Forecast
Issued by NWS Charleston, WV

Current Version | Previous Version | Graphics & Text | Print | Product List | Glossary On
Versions: 1 2 3 4 5 6 7 8 9 10 11 12 13 14 15 16 17 18 19 20 21 22 23 24
000
FTUS41 KRLX 231459 AAA
TAFCRW
TAF AMD
KCRW 231459Z 2315/2412 36003KT P6SM FEW060 SCT110 BKN150
     FM232200 VRB04KT 6SM -SHRA BR BKN012=

USA.gov is the U.S. government's official web portal to all federal, state and local government web resources and services.